K9UO Weather Reports


Display with metric or nautical units.
time (UTC)temp
F
wind
direction
speed
MPH
gust
MPH
rain 1hr
in
rain 24hr
in
rain mn
in
humidity
%
barometer
mb
20260505021547 67 195 6.0 10.0 0.00 0.00 0.00 56 1002.8
20260505020046 67 196 6.0 11.0 0.00 0.00 0.00 55 1002.6
20260505014546 67 360 5.0 8.0 0.00 0.00 0.00 56 1002.5
20260505013052 67 206 4.0 8.0 0.00 0.00 0.00 56 1002.5
20260505011543 67 202 4.0 8.0 0.00 0.00 0.00 56 1002.4
20260505010044 68 213 5.0 10.0 0.00 0.00 0.00 54 1002.4
20260505004549 68 225 6.0 10.0 0.00 0.00 0.00 54 1002.3
20260505003043 68 189 6.0 10.0 0.00 0.00 0.00 55 1002.1
20260505001543 69 360 7.0 11.0 0.00 0.00 0.00 55 1002.0
20260505000057 69 200 8.0 16.0 0.00 0.00 0.00 55 1002.1
20260504234540 69 203 7.0 13.0 0.00 0.00 0.00 55 1002.3
20260504233040 69 194 7.0 13.0 0.00 0.00 0.00 55 1002.2
20260504231536 69 187 7.0 15.0 0.00 0.00 0.00 56 1002.8
20260504230038 69 205 6.0 15.0 0.00 0.00 0.00 57 1003.2
20260504224534 70 214 9.0 14.0 0.00 0.00 0.00 53 1003.4
20260504223033 70 205 9.0 16.0 0.00 0.00 0.00 53 1003.4
20260504221540 70 213 9.0 21.0 0.00 0.00 0.00 53 1003.6
20260504220032 72 211 10.0 23.0 0.00 0.00 0.00 49 1003.6
20260504214534 73 201 12.0 21.0 0.00 0.02 0.00 46 1003.5
20260504213032 74 227 13.0 20.0 0.00 0.02 0.00 42 1003.0
20260504211528 74 219 11.0 18.0 0.00 0.02 0.00 43 1003.0
20260504210025 73 219 15.0 26.0 0.00 0.02 0.00 44 1003.4
20260504204525 73 205 10.0 16.0 0.00 0.03 0.00 47 1003.5
20260504203025 72 222 14.0 26.0 0.00 0.03 0.00 48 1003.8
20260504201522 72 231 12.0 26.0 0.00 0.03 0.00 49 1003.8
20260504200021 73 245 16.0 26.0 0.00 0.03 0.00 48 1004.2
20260504194519 73 234 16.0 32.0 0.00 0.03 0.00 47 1004.2
20260504193018 73 235 17.0 25.0 0.00 0.03 0.00 48 1004.4
20260504191517 73 216 14.0 29.0 0.00 0.03 0.00 49 1004.4
20260504190016 73 360 16.0 26.0 0.00 0.03 0.00 49 1004.6
20260504184515 72 223 13.0 21.0 0.00 0.03 0.00 50 1004.4
20260504183011 72 210 11.0 21.0 0.00 0.03 0.00 52 1004.6
20260504181509 72 360 10.0 21.0 0.00 0.03 0.00 52 1004.7
20260504180010 72 254 10.0 20.0 0.00 0.03 0.00 51 1004.7
20260504174507 71 360 10.0 22.0 0.00 0.03 0.00 52 1004.8
20260504173005 72 360 11.0 18.0 0.00 0.03 0.00 51 1004.8
20260504171503 71 190 13.0 20.0 0.00 0.03 0.00 52 1004.9
20260504081537 51 204 6.0 10.0 0.00 0.03 0.00 51 1008.3
20260504050012 51 209 4.0 9.0 0.00 0.03 0.00 48 1010.1
20260504044508 52 204 5.0 9.0 0.00 0.03 0.00 51 1010.2
20260504043005 52 206 7.0 13.0 0.00 0.03 0.00 51 1010.3
20260504041502 52 194 4.0 8.0 0.00 0.03 0.00 47 1010.4
20260504034558 52 187 4.0 7.0 0.00 0.03 0.03 43 1010.7
20260504033052 51 178 3.0 6.0 0.00 0.03 0.03 35 1010.9
20260504031549 50 194 2.0 6.0 0.00 0.03 0.03 27 1011.0
20260504030042 50 165 1.0 4.0 0.00 0.03 0.03 25 1011.2
20260504024542 50 157 3.0 6.0 0.00 0.03 0.03 27 1011.4
20260504023033 51 158 3.0 6.0 0.00 0.03 0.03 29 1011.5